Theta_e
308 307 306 306 306 304 299 294 292 305 301 289 290 288 293 296 295 298 294 293 292 290 291 288 287 287 292 296 295 289 290 285 281 285 292 293 289 286 286 279 280 284 282 280
306 305 305 306 305 304 298 292 294 303 300 283 285 291 294 295 294 295 293 291 292 292 287 283 289 291 296 296 294 290 290 282 280 280 285 289 286 289 289 286 284 280 278 279
306 305 305 305 305 304 296 293 288 292 293 290 287 287 290 291 297 295 295 292 292 289 287 288 286 288 293 294 295 300 294 287 282 278 283 288 283 287 289 285 278 280 281 283
304 304 304 305 304 304 296 291 287 288 284 286 287 287 290 289 289 294 292 289 291 287 283 285 285 288 290 293 296 294 292 286 287 288 289 289 288 287 288 286 285 281 284 285
303 303 304 304 304 303 295 288 286 288 286 289 288 288 286 289 291 290 289 287 290 288 283 286 284 287 286 286 290 293 293 286 289 286 289 288 286 288 289 289 288 288 288 286
303 303 303 303 304 301 290 293 292 292 287 286 284 284 287 289 289 291 293 290 288 287 289 292 292 292 292 290 288 288 287 286 284 280 287 287 282 288 289 290 292 289 284 288
303 303 303 302 303 301 291 292 293 286 281 286 286 288 289 289 290 287 291 290 287 293 297 295 293 292 292 292 291 292 288 285 287 281 282 276 287 294 292 289 291 291 291 292
302 302 302 302 302 302 292 292 290 291 282 287 288 290 289 289 289 288 289 292 293 294 292 287 284 285 288 292 292 289 290 287 283 280 277 283 288 291 290 288 287 293 291 291
302 302 302 302 302 302 293 291 296 297 290 283 292 287 289 285 284 286 290 293 294 291 289 289 281 276 286 285 289 293 292 292 286 283 277 272 285 293 295 293 283 294 292 292
302 302 302 302 302 302 295 291 292 289 289 289 289 288 284 288 289 288 288 289 289 292 287 284 281 281 290 277 280 283 286 287 283 282 280 283 291 295 295 279 283 294 293 294
301 302 302 302 302 303 301 292 293 292 290 290 292 292 288 289 289 286 287 289 290 286 283 288 285 281 285 281 285 281 280 282 281 284 281 275 294 291 285 291 294 294 294 296
301 301 301 302 302 302 302 291 296 296 290 289 295 295 296 294 294 290 291 291 290 291 285 289 287 283 284 283 278 288 280 286 285 286 284 294 294 291 295 297 295 296 296 297
301 301 302 302 302 302 301 296 293 291 287 288 288 289 294 297 297 299 289 290 295 293 296 291 291 282 284 279 280 284 288 291 287 288 292 292 294 297 298 297 297 299 298 297
301 301 302 302 302 302 302 296 296 293 291 283 285 295 294 298 298 299 298 297 298 298 296 293 290 287 291 285 286 286 289 293 289 288 293 294 296 297 296 298 299 298 298 299
301 301 302 302 302 302 299 296 295 294 288 284 285 292 294 297 297 299 299 297 296 295 292 291 289 292 291 290 291 288 295 294 290 289 296 293 293 294 298 297 298 298 298 299
301 301 302 302 301 302 293 288 300 298 296 290 285 289 293 297 300 299 297 299 297 296 294 293 293 295 292 288 286 292 297 299 300 296 296 296 294 296 298 298 298 299 299 300
301 301 301 301 301 296 291 290 295 301 301 292 286 284 291 296 302 300 297 299 297 297 295 293 293 293 294 290 286 292 299 301 301 296 295 293 295 293 298 298 298 300 300 300
301 301 301 301 302 300 296 296 302 301 296 295 286 284 287 296 293 293 302 297 297 296 295 294 292 294 293 288 293 299 299 300 296 295 296 295 295 298 298 298 298 296 296 297
302 301 302 298 296 295 298 307 305 303 296 289 288 284 282 293 290 292 294 298 290 297 291 292 294 291 287 293 296 299 300 297 294 296 295 294 294 296 297 296 296 294 295 296
302 299 295 295 299 308 305 299 295 294 294 293 286 291 288 292 293 289 287 292 292 288 292 295 290 290 298 299 301 301 298 296 295 291 291 292 294 296 295 295 295 295 295 296
292 288 288 292 299 293 290 287 290 290 287 290 289 289 289 294 290 291 292 287 290 288 291 291 290 290 295 299 301 302 297 297 295 295 294 294 296 295 295 295 296 295 295 294
292 291 293 291 291 289 287 285 292 289 288 291 290 289 290 291 293 290 291 289 290 285 294 291 287 290 295 300 302 300 299 297 295 295 295 297 297 297 296 296 295 294 294 295
295 292 289 289 287 280 285 282 283 283 288 289 288 286 289 289 294 291 290 287 284 291 287 288 287 294 300 302 303 300 300 299 295 295 296 297 298 298 297 295 295 294 294 294
291 289 277 284 285 286 283 283 284 287 286 286 285 285 284 288 286 290 285 289 288 285 282 284 288 290 298 301 302 302 302 298 297 296 296 296 297 297 297 296 296 295 293 293
290 287 277 284 288 287 286 286 285 287 287 285 284 284 284 282 281 288 287 285 283 284 282 286 289 294 299 299 301 302 302 301 296 296 295 296 296 296 296 297 297 296 294 294
290 287 284 286 285 283 284 284 283 286 286 286 285 285 284 285 285 284 282 281 279 283 286 291 292 293 297 299 301 303 303 303 297 296 296 297 296 295 295 295 296 296 296 295
289 285 288 285 285 283 284 285 287 288 286 282 283 282 279 287 282 280 283 280 283 288 289 291 292 292 293 296 299 301 303 303 304 297 296 296 297 297 295 293 295 296 296 295
Wind_Speed
21 23 25 26 26 27 9 4 3 4 5 5 1 1 5 7 10 7 4 1 3 2 2 4 3 5 3 6 0 3 1 1 5 10 20 9 4 4 5 3 3 4 3 10
21 23 24 24 24 19 5 3 4 4 6 3 4 6 5 3 5 7 6 5 3 2 2 4 4 3 5 7 2 4 1 1 6 8 4 4 2 4 4 4 2 6 5 10
20 22 23 25 26 22 3 2 5 6 5 1 2 5 5 6 5 3 5 3 6 6 4 2 5 7 4 11 7 8 5 3 6 7 15 10 12 15 15 9 5 6 14 20
20 21 22 25 28 30 3 4 1 1 5 4 5 3 3 6 7 2 3 4 2 3 4 5 6 3 12 11 11 5 6 6 11 19 22 20 19 20 21 17 15 13 17 17
19 20 20 22 26 28 5 3 3 4 4 6 6 5 4 5 9 3 4 3 6 1 4 8 16 12 4 7 5 4 4 6 7 15 18 16 18 18 20 19 14 9 5 12
18 18 18 19 21 14 4 3 3 1 4 5 3 2 4 7 7 7 6 8 5 5 11 11 13 13 12 12 11 5 5 3 3 6 8 13 7 4 4 3 2 3 7 10
15 16 17 17 16 12 0 4 2 3 5 2 4 10 13 9 7 4 4 5 4 4 12 9 9 12 17 13 15 10 7 4 3 6 6 3 3 6 5 8 11 12 13 8
14 14 15 15 14 14 1 3 3 3 5 3 13 5 4 8 6 6 8 5 6 7 7 4 7 6 3 1 1 6 5 4 3 3 2 8 2 4 3 3 18 12 6 12
13 14 13 13 13 13 2 4 3 3 3 5 2 5 4 3 5 6 5 7 7 4 1 2 2 3 3 2 2 4 3 4 4 1 3 5 3 4 3 7 11 2 12 16
13 13 13 14 12 9 2 4 1 2 4 6 3 3 3 4 5 6 5 7 7 2 3 1 2 4 3 2 1 3 3 4 9 5 6 7 4 4 2 0 7 15 13 17
13 13 13 14 13 13 5 5 3 2 4 12 13 16 11 5 3 4 5 6 3 5 5 2 2 1 3 4 3 3 4 2 3 3 4 6 1 2 1 5 18 16 14 13
13 14 14 13 13 12 9 2 4 1 4 8 14 16 18 18 26 11 4 6 1 3 3 3 3 4 3 3 4 4 2 6 3 6 6 5 6 8 7 8 15 17 14 14
13 14 15 14 13 13 9 3 2 2 4 8 3 5 4 4 9 13 5 4 6 4 4 0 3 3 2 2 5 4 6 1 4 1 7 14 7 5 5 7 15 11 11 18
14 15 15 15 14 13 12 4 2 1 4 4 9 5 14 13 12 9 20 6 1 3 2 2 4 2 3 3 6 8 9 5 4 8 13 9 5 6 12 12 10 9 15 14
14 15 16 16 15 15 9 6 5 6 3 4 7 16 5 9 5 10 15 13 6 2 2 3 3 3 2 3 4 5 4 3 3 4 6 5 7 7 11 8 6 12 13 13
16 16 16 15 14 13 2 4 4 5 5 3 5 5 8 13 10 6 10 10 4 4 3 3 3 3 2 4 4 6 5 7 3 6 4 5 6 9 6 5 8 12 12 12
17 17 16 15 12 1 3 3 3 5 1 2 5 5 7 7 5 4 2 3 3 3 2 3 2 3 4 3 5 6 10 13 8 4 5 5 10 11 4 8 11 12 10 10
20 19 17 15 11 8 5 4 11 5 2 1 3 6 6 4 3 2 2 3 2 1 2 1 3 2 3 5 7 5 12 13 2 2 5 8 9 2 3 8 10 10 10 10
23 22 13 2 2 2 2 3 8 2 1 1 1 3 5 5 4 3 1 1 2 2 3 3 3 3 5 7 7 4 9 3 4 5 7 8 8 9 7 8 9 10 10 11
25 0 2 1 2 6 7 1 2 0 1 1 3 2 4 4 3 4 3 2 3 2 4 2 4 3 8 11 7 4 2 5 4 3 6 6 7 7 11 8 9 9 10 11
4 4 1 3 7 2 1 2 2 2 1 2 3 5 4 3 3 3 2 3 3 3 0 3 1 3 6 13 13 7 5 5 3 2 2 5 4 6 10 9 8 10 11 10
3 4 4 3 1 2 3 3 3 3 2 4 4 5 5 4 2 3 4 3 4 3 0 3 4 5 17 14 16 6 4 3 5 4 6 5 5 5 8 7 8 8 8 10
1 1 1 2 2 2 3 3 3 3 2 3 3 5 3 2 1 3 3 3 5 7 2 3 3 14 13 11 11 3 2 3 5 4 5 5 4 4 8 9 8 8 7 8
3 3 4 3 1 2 2 2 3 5 2 5 3 4 2 2 1 1 3 4 3 4 8 6 8 20 13 11 11 11 11 4 5 4 5 5 5 4 6 8 8 8 9 9
3 1 2 4 2 1 2 2 3 3 2 3 5 4 2 3 3 0 3 3 6 5 3 4 11 19 16 13 14 15 15 5 4 3 3 4 5 4 4 6 7 8 8 8
3 3 1 3 3 4 3 2 2 3 3 4 2 3 5 5 5 4 8 6 5 4 6 9 13 17 16 14 13 12 14 8 1 4 3 3 4 5 4 4 6 8 9 10
3 3 3 3 3 3 0 2 2 3 3 2 2 3 2 1 4 4 4 4 7 9 9 10 14 16 18 18 16 15 14 12 7 2 3 3 5 4 4 5 5 6 8 8
Wind_Direction
348 347 346 347 350 347 28 353 36 286 55 44 52 342 319 320 357 340 329 24 70 137 299 268 279 227 244 353 153 24 52 244 282 276 278 280 238 211 158 186 208 230 257 257
349 348 346 347 349 2 331 341 274 333 81 65 336 313 323 316 324 2 29 324 16 168 246 303 245 302 319 309 96 140 237 290 300 314 26 323 121 223 224 229 207 221 253 264
349 349 347 347 345 347 120 34 3 328 31 71 87 4 290 319 295 75 45 327 1 10 349 4 298 305 308 338 313 148 132 221 229 253 277 283 282 282 276 229 205 246 248 278
352 352 351 350 347 344 98 32 8 139 307 328 329 217 294 328 359 34 64 329 359 92 296 296 246 305 316 317 289 104 131 256 251 257 265 271 269 268 273 265 241 238 271 271
352 354 354 356 354 344 66 77 31 353 298 301 317 343 345 338 336 293 288 226 285 211 229 229 279 274 275 243 273 180 146 271 279 283 267 262 266 266 260 253 263 264 289 279
349 353 356 3 4 12 28 318 339 46 282 315 353 235 328 317 340 293 30 327 304 282 275 266 257 250 247 239 257 211 159 241 259 263 302 302 281 308 321 312 306 302 275 272
350 349 351 2 9 26 183 281 344 47 278 288 262 324 300 293 322 256 288 315 288 287 314 284 270 254 252 244 246 184 177 199 234 280 338 287 105 34 33 347 274 311 286 326
346 347 348 351 2 3 82 283 0 299 275 262 293 310 295 304 304 296 289 291 245 282 291 309 323 330 7 72 73 149 147 147 253 270 239 277 330 17 15 353 288 272 332 333
339 337 342 343 347 353 358 269 255 285 310 257 287 323 284 306 309 311 263 300 286 285 222 259 276 275 287 317 54 157 223 243 207 199 263 250 217 162 290 296 272 32 346 322
330 333 336 335 343 339 0 276 346 334 277 274 197 232 261 289 273 275 297 324 329 14 337 249 249 264 320 347 291 192 237 228 239 251 255 273 162 224 273 7 297 312 328 305
324 327 330 330 327 332 359 261 241 183 266 286 259 265 257 261 226 263 313 342 342 347 9 300 307 309 297 351 286 226 211 228 241 241 247 282 116 8 133 244 280 296 299 289
317 322 322 322 324 322 339 280 312 285 227 254 298 265 247 244 252 249 223 242 356 282 1 360 321 321 337 342 276 314 296 207 221 211 235 227 230 223 248 265 285 295 295 301
311 316 313 317 316 313 318 256 252 333 277 291 313 276 260 248 235 211 198 255 205 230 195 284 266 260 116 288 260 314 311 184 238 199 253 254 273 309 291 273 293 297 308 300
309 311 311 312 313 312 308 280 260 200 261 274 279 306 303 296 285 186 201 217 115 130 133 226 270 252 203 259 250 297 269 272 304 253 269 288 301 295 300 301 300 303 308 299
305 309 309 311 314 315 307 271 225 186 189 276 294 310 274 294 267 247 194 204 200 158 192 220 244 234 287 267 249 241 232 224 263 282 275 255 282 287 300 308 315 307 306 308
306 310 309 308 309 316 360 338 53 188 184 285 305 290 295 304 314 180 172 188 168 174 197 212 233 256 129 263 258 253 229 215 210 259 262 243 281 289 300 304 313 315 310 308
306 306 304 299 296 280 211 215 242 338 296 264 290 302 284 300 29 353 354 148 195 152 200 222 228 230 192 249 253 278 325 294 256 251 349 310 276 322 14 349 327 312 312 313
306 304 300 286 284 281 261 254 252 177 266 265 302 287 311 322 317 278 213 212 130 224 245 224 222 211 216 260 257 279 275 282 143 251 260 256 282 266 348 346 325 334 330 329
307 307 303 95 159 218 239 118 100 69 128 23 300 294 296 334 295 250 320 125 207 186 221 226 194 232 231 236 240 221 292 222 206 256 289 306 336 342 9 341 344 342 334 337
307 344 134 114 212 134 113 136 173 80 117 209 259 268 271 321 288 288 1 212 230 244 224 195 209 252 281 324 278 308 195 180 200 326 334 333 347 359 1 356 354 345 343 346
25 6 2 280 291 57 204 228 213 141 223 222 249 240 265 261 259 286 244 281 229 275 293 259 263 3 347 322 316 264 182 227 221 323 329 16 44 358 356 353 0 354 352 350
274 278 291 288 281 219 249 222 144 194 233 206 222 240 207 271 341 318 326 298 322 256 276 276 17 318 309 309 316 150 172 232 83 45 27 59 31 2 13 359 2 351 353 356
247 190 261 111 255 14 234 18 351 341 237 281 295 304 231 295 236 273 305 281 258 325 40 38 1 320 348 359 359 92 296 105 102 73 31 113 98 28 19 14 12 8 7 8
231 193 324 170 278 275 100 185 216 240 224 301 294 277 241 246 156 124 280 292 311 28 13 10 324 324 351 347 18 12 344 321 96 83 51 67 66 37 30 31 4 10 19 21
248 133 233 223 247 108 168 160 50 302 266 317 325 302 157 317 67 347 302 303 44 44 352 289 316 325 344 355 2 357 340 315 126 112 74 82 80 51 33 24 26 32 29 28
236 228 312 287 56 341 4 10 332 299 336 331 41 349 37 350 348 15 13 7 23 345 310 333 330 331 357 357 342 341 337 343 27 140 132 102 114 87 78 37 27 37 31 35
233 255 228 215 203 191 60 122 307 305 55 345 320 43 226 337 42 41 21 344 318 309 332 330 335 338 342 338 350 353 342 330 317 237 167 148 131 118 82 67 21 29 48 29